SL-8 R/B, 1575

Orbit data source: Space-Track

SL-8 R/B, 1575 is space debris in LEO originally from a launch on Fri, 03 Sep 1965 UTC launched from the Tyuratam Missile And Space Complex (TTMTR). Debris objects in space refer to the collection of defunct objects orbiting the Earth. Examples of debris include non-operational satellites, rocket bodies, and fragments generated from explosions, collisions, or faulty payload assembly.

Loading next visibility...
Identifier
1575, 1965-070F
Orbit
LEO
Country
Flag of CISCIS
Related business
Manufacturer
Yuzhnoe
Mission
Spacecraft
Bus & Motor
S3, Unknown motor
Mass
1,434 kg wet, 1,434 kg dry
Launch date (UTC)
1965-09-03 (61 years ago)
Launch vehicle
Unknown
Launch site
Tyuratam Missile And Space Complex (TTMTR)
Object type
Payload
Rocket body
Debris
Shape & HBR
CYL, 2.1 m
Radar Cross Section
Large (>1 m²)

Expand to show TLE details & history
Last TLE update: 5 hours ago

TLE from 5 hours ago
0 SL-8 R/B
1 01575U 65070F   26207.65918476 -.00000088  00000-0  55333-4 0  9999
2 01575  56.1262   3.8786 0100995 133.9429 321.4830 12.57008753795728
Epoch: 2026-07-26T15:49Z
TLE epoch observation values (Epoch: 2026-07-26T15:49:13.563Z)
Latitude
55.97232°
Longitude
-79.38548°
Altitude
1,381.491 km
Speed
7.203 km/s
True Right ascension
06h 49m 05s
True Declination
55° 49' 32"
Sunlit
Object was in daylight at epoch
Visualization orbit readout
Latitude
Unknown
Longitude
Unknown
Altitude
Unknown
Speed
Unknown
Apparent Right ascension
Unknown
Apparent Declination
Unknown
Sunlit
N/A
Visualization observer readout
Local Sidereal Time
09:58:34
Azimuth
Unknown
Elevation
Unknown
Doppler factor
Unknown
Orbital elements
Apogee altitude
1,514.039 km
Perigee altitude
1,356.218 km
Semi-major axis
7,813.265 km
Eccentricity
0.0101
Inclination
56.1262°
RAAN
3.8786°
Arg. of periapsis
133.9429°
True anomaly
320.75512°
Mean anomaly
321.483°
Eccentric anomaly
321.11978°
Mean motion
3.14264 °/min
Orbital period
114.55 mins
BSTAR
0.000055333
Loading maneuver chart data...
Computing Atmospheric mass density...
Loading historical data...
Loading historical data...
Loading historical data...
Loading historical data...
Loading historical data...
Loading historical data...
Loading historical data...
Other satellites on launch #70 in the year 1965 (1965-09-03 UTC)

Documentation

Showing up to 5 results
|